Location: Opava
(49.9500°N, 17.9170°E)
Time: 15:43:40
(UTC+02:00)

ISS - Visible Passes

Search period start: 20 July 2019 00:00
Search period end: 30 July 2019 00:00
Orbit: 409 x 418 km, 51.6° (Epoch: 20 July)

Date Brightness Start Highest point End Pass type
(mag) Time Alt. Az. Time Alt. Az. Time Alt. Az.
20 Jul -3.9 01:29:41 10° WNW 01:33:02 89° NNE 01:36:21 10° ESE visible
20 Jul -2.7 03:06:38 10° W 03:11:55 12° SSE 03:12:16 10° SSE visible
20 Jul -3.4 21:27:02 10° SW 21:30:14 44° SSE 21:33:25 10° ENE visible
20 Jul -3.5 23:03:30 10° W 23:06:50 70° N 23:10:10 10° ENE visible
21 Jul -3.6 00:40:22 10° WNW 00:43:42 73° N 00:45:17 28° E visible
21 Jul -1.7 02:17:09 10° W 02:18:01 16° W 02:18:01 16° W visible
21 Jul -3.7 22:14:09 10° WSW 22:17:30 82° NNW 22:20:51 10° ENE visible
21 Jul -3.4 23:51:00 10° WNW 23:54:21 65° N 23:56:37 18° E visible
22 Jul -2.3 01:27:46 10° WNW 01:29:24 26° W 01:29:24 26° W visible
22 Jul -3.8 21:24:49 10° WSW 21:28:10 78° SSE 21:31:30 10° ENE visible
22 Jul -3.3 23:01:38 10° W 23:04:57 62° N 23:08:16 10° E visible
23 Jul -3.5 00:38:24 10° WNW 00:41:10 57° W 00:41:10 57° W visible
23 Jul -3.4 22:12:13 10° W 22:15:34 65° N 22:18:52 10° ENE visible
23 Jul -3.8 23:49:03 10° WNW 23:52:23 84° NNE 23:53:07 52° E visible
24 Jul -3.5 21:22:49 10° W 21:26:09 73° N 21:29:30 10° ENE visible
24 Jul -3.6 22:59:40 10° WNW 23:03:01 71° N 23:05:08 21° E visible
25 Jul -2.0 00:36:26 10° W 00:37:56 23° W 00:37:56 23° W visible
25 Jul -3.4 22:10:16 10° WNW 22:13:36 64° N 22:16:55 10° E visible
25 Jul -3.6 23:47:01 10° WNW 23:50:00 57° SW 23:50:00 57° SW visible
26 Jul -3.3 21:20:50 10° W 21:24:10 62° N 21:27:29 10° E visible
26 Jul -3.9 22:57:37 10° WNW 23:00:58 82° SSW 23:02:07 38° ESE visible
27 Jul -1.1 00:34:41 10° W 00:34:56 11° W 00:34:56 11° W visible
27 Jul -3.7 22:08:13 10° WNW 22:11:34 79° N 22:14:16 15° E visible
27 Jul -2.3 23:45:04 10° W 23:47:04 26° WSW 23:47:04 26° WSW visible
28 Jul -3.5 21:18:48 10° WNW 21:22:08 68° N 21:25:28 10° E visible
28 Jul -3.5 22:55:33 10° WNW 22:58:47 47° SSW 22:59:14 43° S visible
29 Jul -3.8 22:06:05 10° WNW 22:09:26 67° SSW 22:11:26 22° SE visible
29 Jul -1.3 23:43:29 10° W 23:44:15 13° WSW 23:44:15 13° WSW visible
